Tracking 18843 objects as of 21-November-2017
HD Live streaming from Space Station
objects crossing your sky now

OPS 6431

Track OPS 6431 now!
10-day predictions
OPS 6431 is classified as:


NORAD ID: 8818
Int'l Code: 1976-038A
Perigee: 393.9 km
Apogee: 1,526.6 km
Inclination: 63.2 °
Period: 104.1 minutes
Semi major axis: 7331 km
RCS: Unknown
Launch date: April 30, 1976
Source: United States (US)
Launch site: AIR FORCE WESTERN TEST RANGE (AFWTR)
aabbcc
Your satellite tracking list
Your tracking list is empty




NASA's NSSDC Master Catalog

Two Line Element Set (TLE):
1 08818U 76038A   17298.70400543 0.00002000  00000-0  14790-3 0    08
2 08818  63.2365 254.6739 0772520 147.8052 212.1948 13.83055513    09
Source of the keplerian elements: McCants